Home   Weather   Norwich   Past weeks

Flag for United Kingdom Past Weather in Norwich, England, United Kingdom — Yesterday and Last 2 Weeks

55 °F

Scattered clouds.

Feels Like: 53 °F
Forecast: 46 / 53 °F
Wind: 8 mph from Northeast

Location: Norwich Weather Centre

Current Time: Oct 23, 2016 at 1:04:17 PM

Latest Report: Oct 23, 2016 at 12:20 PM

Visibility: N/A

Pressure: 29.92 "Hg

Humidity: 72%

Dew Point: 46 °F

Location of NorwichLocation

Past Weather in Norwich — Graph


Norwich Temperature Yesterday

Maximum temperature yesterday: 55 °F (at 12:20 PM)
Minimum temperature yesterday: 46 °F (at 5:20 AM)
Average temperature yesterday: 50 °F

High & Low Weather Summary for the Past Weeks

High63 °F (Oct 16, 12:50 PM)100% (Oct 9, 2:20 AM)30.36 "Hg (Oct 9, 2:20 AM)
Low43 °F (Oct 10, 3:20 AM)59% (Oct 17, 3:20 PM)29.65 "Hg (Oct 15, 2:20 AM)
Average52 °F91%30.05 "Hg
* Reported Oct 8 11:20 AM — Oct 23 11:50 AM, Norwich, Weather by CustomWeather, © 2016

Note: Actual official high and low records may vary slightly from our data, if they occured in-between our weather recording intervals... More about our weather records


Norwich Weather History for the Previous 24 Hours

Scroll right to see more
Time TempWeatherWind HumidityBarometerVisibility
11:50 AM
Sun, Oct 23
54 °FScattered clouds.8 mph77%29.95 "HgN/A
11:20 AM54 °FScattered clouds.7 mph77%29.95 "HgN/A
10:50 AM52 °FScattered clouds.7 mph88%29.95 "HgN/A
10:20 AM50 °FScattered clouds.3 mph94%29.95 "HgN/A
9:50 AM50 °FScattered clouds.1 mph94%29.95 "HgN/A
9:20 AM48 °FScattered clouds.1 mph100%29.95 "HgN/A
8:50 AM48 °FScattered clouds.1 mph100%29.95 "HgN/A
8:20 AM48 °FScattered clouds.2 mph100%29.95 "HgN/A
7:50 AM48 °FScattered clouds.3 mph100%29.95 "HgN/A
7:20 AM48 °FPassing clouds.2 mph100%29.95 "HgN/A
6:50 AM46 °FPassing clouds.5 mph100%29.95 "HgN/A
6:20 AM46 °FPassing clouds.7 mph100%29.95 "HgN/A
5:50 AM48 °FPassing clouds.6 mph100%29.95 "HgN/A
5:20 AM46 °FPassing clouds.5 mph100%29.95 "HgN/A
4:50 AM46 °FCool.2 mph100%29.95 "HgN/A
4:20 AM46 °FCool.1 mph100%29.95 "Hg4 mi
3:50 AM46 °FFog.2 mph100%29.95 "Hg3 mi
3:20 AM46 °FFog.1 mph100%29.95 "Hg2 mi
2:50 AM46 °FFog.1 mph100%29.95 "Hg1 mi
2:20 AM46 °FFog.No wind100%29.95 "Hg0 mi
1:50 AM46 °FFog.1 mph100%29.95 "Hg0 mi
1:20 AM46 °FFog.No wind100%29.98 "Hg0 mi
12:50 AM48 °FFog.1 mph100%29.98 "Hg1 mi
12:20 AM48 °FFog.No wind100%29.98 "Hg2 mi
11:50 PM
Sat, Oct 22
46 °FFog.1 mph100%29.98 "Hg1 mi
11:20 PM48 °FCool.1 mph100%29.98 "HgN/A
10:50 PM48 °FLight rain. Passing clouds.No wind100%29.98 "HgN/A
10:20 PM48 °FLight rain. Partly cloudy.1 mph100%29.98 "HgN/A
9:50 PM48 °FPassing clouds.3 mph94%29.98 "HgN/A
9:20 PM48 °FPassing clouds.2 mph100%29.98 "HgN/A
8:50 PM48 °FPassing clouds.2 mph100%29.98 "HgN/A
8:20 PM48 °FPassing clouds.2 mph100%29.98 "HgN/A
7:50 PM48 °FPassing clouds.2 mph100%29.98 "HgN/A
7:20 PM48 °FPassing clouds.3 mph100%29.98 "HgN/A
6:50 PM50 °FPassing clouds.2 mph94%29.98 "HgN/A
6:20 PM50 °FPassing clouds.3 mph94%29.98 "HgN/A
5:50 PM50 °FPassing clouds.3 mph94%29.98 "HgN/A
5:20 PM52 °FScattered clouds.3 mph88%29.98 "HgN/A
4:50 PM54 °FScattered clouds.5 mph82%29.98 "HgN/A
4:20 PM54 °FScattered clouds.5 mph77%29.98 "HgN/A
3:50 PM54 °FScattered clouds.8 mph82%29.98 "HgN/A
3:20 PM55 °FScattered clouds.10 mph77%29.98 "HgN/A
2:50 PM54 °FScattered clouds.9 mph77%29.98 "HgN/A
2:20 PM54 °FScattered clouds.12 mph77%30.01 "HgN/A
1:50 PM54 °FPassing clouds.9 mph77%30.01 "HgN/A
1:20 PM55 °FScattered clouds.5 mph82%30.01 "HgN/A
Weather by CustomWeather, © 2016

See weather overviewHow to use our weather pages